Retour au catalogue

INTELSAT 704

ActifCommunicationsGEO
NORAD 23461·PAYLOAD· XX

Lancé Jan 10, 1995 depuis Cape Canaveral Space Force Station

Loading…

TLE

FraisSource: Space-Track

Époque: Sep 14, 2026, 10:44 UTC

1 23461U 95001A   26257.44763794  .00000031  00000-0  00000-0 0  9991
2 23461  12.0149  34.9293 0013386 167.5320  28.3417  0.99177055115364

Suivez INTELSAT 704 en temps réel avec AllMySat

Download on the App Store